{"data":{"norad_id":68718,"epoch":"2026-09-18T05:53:07.165248Z","epoch_age_seconds":239028,"freshness":"STALE","line1":"1 68718U 26081V   26261.24522182  .00029140  00000+0  87005-3 0  9998","line2":"2 68718  53.1565 216.1584 0001090 149.0445 211.0622 15.34406840 24275","mean_motion":15.3440684,"eccentricity":0.000109,"inclination_deg":53.1565,"raan_deg":216.1584,"arg_perigee_deg":149.0445,"mean_anomaly_deg":211.0622,"bstar":0.00087005,"rev_number":2427,"period_min":93.847339731619,"perigee_km":461.93726099093,"apogee_km":463.42855973139,"semimajor_km":6840.8199103612,"source":"CELESTRAK","updated_at":"2026-09-20T09:00:43.985702Z"}}